This demonstration page uses our WeatherBlox Daily Observations layout. Learn more.

Left ArrowRight Arrow

44.89941, -97.11507

Hourly Observations for January 22, 2021

Temp ( °F °C ) Dew Point ( °F °C ) Humidity (%) Winds ( mph kmh ) Pressure ( in mb ) Visibility ( mi km ) Precip ( " mm )
12:53 am 00:53 Clear 6 -14.4 1 -17.2 79 79 NW 7 11 30.23 1024 10 16 0.00 0.00
1:53 am 01:53 Clear 5 -15 1 -17.2 83 83 NW 6 9 30.23 1024 10 16 0.00 0.00
2:53 am 02:53 Clear 5 -15 1 -17.2 83 83 NW 3 6 30.24 1024 10 16 0.00 0.00
3:53 am 03:53 Clear 4 -15.6 0 -17.8 83 83 WNW 5 7 30.24 1024 10 16 0.00 0.00
4:53 am 04:53 Clear 3 -16.1 0 -17.8 87 87 WNW 5 7 30.25 1024 10 16 0.00 0.00
5:53 am 05:53 Clear 4 -15.6 0 -17.8 83 83 W 6 9 30.26 1025 10 16 0.00 0.00
6:53 am 06:53 Clear 2 -16.7 -1 -18.3 88 88 W 6 9 30.27 1025 10 16 0.00 0.00
7:53 am 07:53 Clear 2 -16.7 -2 -18.9 83 83 Calm 30.28 1025 10 16 0.00 0.00
8:53 am 08:53 Sunny 5 -15 2 -16.7 87 87 Calm 30.30 1026 10 16 0.00 0.00
9:53 am 09:53 Sunny 11 -11.7 6 -14.4 81 81 W 6 9 30.31 1026 10 16 0.00 0.00
10:44 am 10:44 Mostly Cloudy 14 -10 7 -13.9 73 73 NW 6 9 30.36 1028 10 16 0.00 0.00
10:53 am 10:53 Cloudy 14 -10 6 -14.4 71 71 NW 5 7 30.31 1026 10 16 0.00 0.00
11:53 am 11:53 Cloudy 15 -9.4 8 -13.3 74 74 W 6 9 30.29 1026 10 16 0.00 0.00
12:53 pm 12:53 Cloudy 17 -8.3 10 -12.2 74 74 WSW 7 11 30.25 1025 10 16 0.00 0.00
1:53 pm 13:53 Cloudy 19 -7.2 12 -11.1 74 74 SW 12 19 30.24 1024 10 16 0.00 0.00
2:53 pm 14:53 Cloudy 20 -6.7 14 -10 78 78 SW 12 19 30.23 1024 10 16 0.00 0.00
3:53 pm 15:53 Cloudy 20 -6.7 14 -10 78 78 SW 10 17 30.24 1024 10 16 0.00 0.00
4:53 pm 16:53 Cloudy 21 -6.1 15 -9.4 78 78 SW 10 17 30.23 1024 10 16 0.00 0.00
5:53 pm 17:53 Partly Cloudy 19 -7.2 14 -10 81 81 S 7 11 30.22 1023 10 16 0.00 0.00
6:53 pm 18:53 Clear 17 -8.3 12 -11.1 80 80 S 7 11 30.22 1023 10 16 0.00 0.00
7:53 pm 19:53 Clear 17 -8.3 13 -10.6 84 84 S 10 17 30.22 1023 10 16 0.00 0.00
8:53 pm 20:53 Clear 17 -8.3 13 -10.6 84 84 S 8 13 30.21 1023 10 16 0.00 0.00
9:53 pm 21:53 Clear 17 -8.3 13 -10.6 84 84 S 9 15 30.20 1023 10 16 0.00 0.00
10:53 pm 22:53 Clear 16 -8.9 13 -10.6 88 88 S 8 13 30.20 1023 10 16 0.00 0.00
11:53 pm 23:53 Clear 15 -9.4 12 -11.1 88 88 S 7 11 30.19 1023 10 16 0.00 0.00

Powered by AerisWeather